Location: Alpha Ridge Park
(39.3209°N, 76.9128°W)
Time: 19:22:41
(UTC-04:00)

Vanguard 2 Rocket - Pass Details

Date: 28 May 2019
Orbit: 554 x 3326 km, 32.9° (Epoch: 17 June)

Event Time Altitude Azimuth Distance (km) Brightness Sun altitude
Rises 02:28:09 0° 198° (SSW) 6,801 - -26.2°
Reaches altitude 10° 02:33:49 10° 186° (S) 6,051 - -25.8°
Exits shadow 02:40:10 20° 169° (S) 5,404 10.3 -25.3°
Maximum altitude 02:48:12 26° 140° (SE) 5,035 10.4 -24.6°
Drops below altitude 10° 03:01:55 10° 93° (E) 5,838 11.3 -23.4°
Sets 03:07:06 0° 82° (E) 6,536 11.8 -22.9°
